Year,Month,Day,Hour,Minute,Value (Times are PST for temperature in C)
2016,07,20,00,00,17.80
2016,07,20,00,01,17.80
2016,07,20,00,02,17.80
2016,07,20,00,03,17.80
2016,07,20,00,04,17.80
2016,07,20,00,05,17.80
2016,07,20,00,06,17.80
2016,07,20,00,07,17.80
2016,07,20,00,08,17.80
2016,07,20,00,09,17.80
2016,07,20,00,10,17.80
2016,07,20,00,11,17.80
2016,07,20,00,12,17.80
2016,07,20,00,13,17.80
2016,07,20,00,14,17.80
2016,07,20,00,15,17.80
2016,07,20,00,16,17.80
2016,07,20,00,17,17.80
2016,07,20,00,18,17.80
2016,07,20,00,19,17.80
2016,07,20,00,20,17.80
2016,07,20,00,21,17.80
2016,07,20,00,22,17.80
2016,07,20,00,23,17.80
2016,07,20,00,24,17.80
2016,07,20,00,25,17.80
2016,07,20,00,26,17.80
2016,07,20,00,27,17.70
2016,07,20,00,28,17.80
2016,07,20,00,29,17.70
2016,07,20,00,30,17.80
2016,07,20,00,31,17.70
2016,07,20,00,32,17.70
2016,07,20,00,33,17.70
2016,07,20,00,34,17.70
2016,07,20,00,35,17.70
2016,07,20,00,36,17.70
2016,07,20,00,37,17.70
2016,07,20,00,38,17.70
2016,07,20,00,39,17.70
2016,07,20,00,40,17.70
2016,07,20,00,41,17.70
2016,07,20,00,42,17.70
2016,07,20,00,43,17.70
2016,07,20,00,44,17.70
2016,07,20,00,45,17.70
2016,07,20,00,46,17.70
2016,07,20,00,47,17.70
2016,07,20,00,48,17.70
2016,07,20,00,49,17.60
2016,07,20,00,50,17.60
2016,07,20,00,51,17.60
2016,07,20,00,52,17.60
2016,07,20,00,53,17.60
2016,07,20,00,54,17.60
2016,07,20,00,55,17.60
2016,07,20,00,56,17.60
2016,07,20,00,57,17.60
2016,07,20,00,58,17.60
2016,07,20,00,59,17.50
2016,07,20,01,00,17.50
2016,07,20,01,01,17.50
2016,07,20,01,02,17.50
2016,07,20,01,03,17.40
2016,07,20,01,04,17.40
2016,07,20,01,05,17.40
2016,07,20,01,06,17.40
2016,07,20,01,07,17.40
2016,07,20,01,08,17.30
2016,07,20,01,09,17.30
2016,07,20,01,10,17.30
2016,07,20,01,11,17.30
2016,07,20,01,12,17.30
2016,07,20,01,13,17.30
2016,07,20,01,14,17.30
2016,07,20,01,15,17.20
2016,07,20,01,16,17.20
2016,07,20,01,17,17.20
2016,07,20,01,18,17.20
2016,07,20,01,19,17.20
2016,07,20,01,20,17.10
2016,07,20,01,21,17.10
2016,07,20,01,22,17.10
2016,07,20,01,23,17.10
2016,07,20,01,24,17.10
2016,07,20,01,25,17.10
2016,07,20,01,26,17.10
2016,07,20,01,27,17.10
2016,07,20,01,28,17.10
2016,07,20,01,29,17.00
2016,07,20,01,30,17.10
2016,07,20,01,31,17.00
2016,07,20,01,32,17.00
2016,07,20,01,33,17.10
2016,07,20,01,34,17.10
2016,07,20,01,35,17.10
2016,07,20,01,36,17.10
2016,07,20,01,37,17.10
2016,07,20,01,38,17.10
2016,07,20,01,39,17.10
2016,07,20,01,40,17.10
2016,07,20,01,41,17.10
2016,07,20,01,42,17.10
2016,07,20,01,43,17.10
2016,07,20,01,44,17.10
2016,07,20,01,45,17.10
2016,07,20,01,46,17.10
2016,07,20,01,47,17.10
2016,07,20,01,48,17.10
2016,07,20,01,49,17.10
2016,07,20,01,50,17.10
2016,07,20,01,51,17.10
2016,07,20,01,52,17.10
2016,07,20,01,53,17.10
2016,07,20,01,54,17.10
2016,07,20,01,55,17.10
2016,07,20,01,56,17.10
2016,07,20,01,57,17.10
2016,07,20,01,58,17.10
2016,07,20,01,59,17.10
2016,07,20,02,00,17.10
2016,07,20,02,01,17.10
2016,07,20,02,02,17.00
2016,07,20,02,03,17.10
2016,07,20,02,04,17.00
2016,07,20,02,05,17.00
2016,07,20,02,06,17.00
2016,07,20,02,07,17.00
2016,07,20,02,08,17.00
2016,07,20,02,09,17.00
2016,07,20,02,10,16.90
2016,07,20,02,11,16.90
2016,07,20,02,12,16.90
2016,07,20,02,13,16.90
2016,07,20,02,14,16.90
2016,07,20,02,15,16.90
2016,07,20,02,16,16.90
2016,07,20,02,17,16.90
2016,07,20,02,18,16.90
2016,07,20,02,19,16.90
2016,07,20,02,20,16.90
2016,07,20,02,21,16.90
2016,07,20,02,22,16.90
2016,07,20,02,23,16.90
2016,07,20,02,24,16.90
2016,07,20,02,25,16.90
2016,07,20,02,26,16.90
2016,07,20,02,27,16.90
2016,07,20,02,28,16.90
2016,07,20,02,29,16.90
2016,07,20,02,30,16.90
2016,07,20,02,31,16.90
2016,07,20,02,32,16.80
2016,07,20,02,33,16.80
2016,07,20,02,34,16.80
2016,07,20,02,35,16.80
2016,07,20,02,36,16.80
2016,07,20,02,37,16.80
2016,07,20,02,38,16.80
2016,07,20,02,39,16.80
2016,07,20,02,40,16.80
2016,07,20,02,41,16.80
2016,07,20,02,42,16.70
2016,07,20,02,43,16.70
2016,07,20,02,44,16.70
2016,07,20,02,45,16.70
2016,07,20,02,46,16.70
2016,07,20,02,47,16.60
2016,07,20,02,48,16.60
2016,07,20,02,49,16.60
2016,07,20,02,50,16.60
2016,07,20,02,51,16.60
2016,07,20,02,52,16.60
2016,07,20,02,53,16.50
2016,07,20,02,54,16.50
2016,07,20,02,55,16.50
2016,07,20,02,56,16.50
2016,07,20,02,57,16.50
2016,07,20,02,58,16.50
2016,07,20,02,59,16.50
2016,07,20,03,00,16.50
2016,07,20,03,01,16.50
2016,07,20,03,02,16.50
2016,07,20,03,03,16.40
2016,07,20,03,04,16.40
2016,07,20,03,05,16.30
2016,07,20,03,06,16.30
2016,07,20,03,07,16.30
2016,07,20,03,08,16.20
2016,07,20,03,09,16.20
2016,07,20,03,10,16.20
2016,07,20,03,11,16.10
2016,07,20,03,12,16.10
2016,07,20,03,13,16.10
2016,07,20,03,14,16.10
2016,07,20,03,15,16.10
2016,07,20,03,16,16.10
2016,07,20,03,17,16.10
2016,07,20,03,18,16.10
2016,07,20,03,19,16.10
2016,07,20,03,20,16.10
2016,07,20,03,21,16.10
2016,07,20,03,22,16.10
2016,07,20,03,23,16.10
2016,07,20,03,24,16.00
2016,07,20,03,25,16.00
2016,07,20,03,26,16.00
2016,07,20,03,27,16.00
2016,07,20,03,28,16.00
2016,07,20,03,29,16.00
2016,07,20,03,30,16.00
2016,07,20,03,31,16.00
2016,07,20,03,32,15.90
2016,07,20,03,33,15.90
2016,07,20,03,34,15.90
2016,07,20,03,35,15.90
2016,07,20,03,36,15.90
2016,07,20,03,37,15.90
2016,07,20,03,38,15.90
2016,07,20,03,39,15.90
2016,07,20,03,40,15.90
2016,07,20,03,41,15.90
2016,07,20,03,42,15.80
2016,07,20,03,43,15.80
2016,07,20,03,44,15.80
2016,07,20,03,45,15.70
2016,07,20,03,46,15.60
2016,07,20,03,47,15.60
2016,07,20,03,48,15.50
2016,07,20,03,49,15.40
2016,07,20,03,50,15.40
2016,07,20,03,51,15.30
2016,07,20,03,52,15.30
2016,07,20,03,53,15.20
2016,07,20,03,54,15.20
2016,07,20,03,55,15.20
2016,07,20,03,56,15.10
2016,07,20,03,57,15.10
2016,07,20,03,58,15.00
2016,07,20,03,59,15.00
2016,07,20,04,00,14.90
2016,07,20,04,01,14.90
2016,07,20,04,02,14.90
2016,07,20,04,03,14.90
2016,07,20,04,04,14.90
2016,07,20,04,05,14.90
2016,07,20,04,06,14.90
2016,07,20,04,07,14.90
2016,07,20,04,08,14.90
2016,07,20,04,09,14.90
2016,07,20,04,10,14.90
2016,07,20,04,11,14.90
2016,07,20,04,12,14.90
2016,07,20,04,13,15.00
2016,07,20,04,14,15.00
2016,07,20,04,15,15.00
2016,07,20,04,16,15.00
2016,07,20,04,17,15.10
2016,07,20,04,18,15.10
2016,07,20,04,19,15.10
2016,07,20,04,20,15.10
2016,07,20,04,21,15.20
2016,07,20,04,22,15.20
2016,07,20,04,23,15.20
2016,07,20,04,24,15.20
2016,07,20,04,25,15.20
2016,07,20,04,26,15.20
2016,07,20,04,27,15.30
2016,07,20,04,28,15.30
2016,07,20,04,29,15.30
2016,07,20,04,30,15.30
2016,07,20,04,31,15.30
2016,07,20,04,32,15.30
2016,07,20,04,33,15.30
2016,07,20,04,34,15.40
2016,07,20,04,35,15.40
2016,07,20,04,36,15.40
2016,07,20,04,37,15.40
2016,07,20,04,38,15.40
2016,07,20,04,39,15.50
2016,07,20,04,40,15.50
2016,07,20,04,41,15.50
2016,07,20,04,42,15.50
2016,07,20,04,43,15.50
2016,07,20,04,44,15.60
2016,07,20,04,45,15.60
2016,07,20,04,46,15.60
2016,07,20,04,47,15.60
2016,07,20,04,48,15.60
2016,07,20,04,49,15.70
2016,07,20,04,50,15.70
2016,07,20,04,51,15.70
2016,07,20,04,52,15.70
2016,07,20,04,53,15.70
2016,07,20,04,54,15.70
2016,07,20,04,55,15.70
2016,07,20,04,56,15.70
2016,07,20,04,57,15.70
2016,07,20,04,58,15.80
2016,07,20,04,59,15.80
2016,07,20,05,00,15.80
2016,07,20,05,01,15.80
2016,07,20,05,02,15.80
2016,07,20,05,03,15.80
2016,07,20,05,04,15.80
2016,07,20,05,05,15.80
2016,07,20,05,06,15.80
2016,07,20,05,07,15.80
2016,07,20,05,08,15.80
2016,07,20,05,09,15.90
2016,07,20,05,10,15.90
2016,07,20,05,11,15.90
2016,07,20,05,12,15.90
2016,07,20,05,13,15.80
2016,07,20,05,14,15.80
2016,07,20,05,15,15.80
2016,07,20,05,16,15.80
2016,07,20,05,17,15.80
2016,07,20,05,18,15.80
2016,07,20,05,19,15.80
2016,07,20,05,20,15.80
2016,07,20,05,21,15.90
2016,07,20,05,22,15.90
2016,07,20,05,23,15.90
2016,07,20,05,24,15.90
2016,07,20,05,25,15.90
2016,07,20,05,26,15.90
2016,07,20,05,27,15.90
2016,07,20,05,28,15.90
2016,07,20,05,29,15.90
2016,07,20,05,30,15.90
2016,07,20,05,31,15.90
2016,07,20,05,32,15.90
2016,07,20,05,33,15.90
2016,07,20,05,34,15.90
2016,07,20,05,35,15.90
2016,07,20,05,36,15.90
2016,07,20,05,37,15.90
2016,07,20,05,38,15.90
2016,07,20,05,39,15.90
2016,07,20,05,40,15.90
2016,07,20,05,41,15.90
2016,07,20,05,42,15.90
2016,07,20,05,43,15.90
2016,07,20,05,44,15.90
2016,07,20,05,45,15.90
2016,07,20,05,46,15.80
2016,07,20,05,47,15.80
2016,07,20,05,48,15.80
2016,07,20,05,49,15.80
2016,07,20,05,50,15.80
2016,07,20,05,51,15.80
2016,07,20,05,52,15.80
2016,07,20,05,53,15.80
2016,07,20,05,54,15.80
2016,07,20,05,55,15.80
2016,07,20,05,56,15.80
2016,07,20,05,57,15.80
2016,07,20,05,58,15.90
2016,07,20,05,59,15.90
2016,07,20,06,00,15.90
2016,07,20,06,01,15.90
2016,07,20,06,02,15.90
2016,07,20,06,03,15.90
2016,07,20,06,04,15.90
2016,07,20,06,05,15.90
2016,07,20,06,06,16.00
2016,07,20,06,07,16.00
2016,07,20,06,08,16.00
2016,07,20,06,09,16.00
2016,07,20,06,10,16.00
2016,07,20,06,11,16.00
2016,07,20,06,12,15.90
2016,07,20,06,13,15.90
2016,07,20,06,14,15.90
2016,07,20,06,15,15.90
2016,07,20,06,16,15.80
2016,07,20,06,17,15.80
2016,07,20,06,18,15.80
2016,07,20,06,19,15.80
2016,07,20,06,20,15.80
2016,07,20,06,21,15.80
2016,07,20,06,22,15.80
2016,07,20,06,23,15.80
2016,07,20,06,24,15.80
2016,07,20,06,25,15.80
2016,07,20,06,26,15.80
2016,07,20,06,27,15.80
2016,07,20,06,28,15.80
2016,07,20,06,29,15.80
2016,07,20,06,30,15.80
2016,07,20,06,31,15.80
2016,07,20,06,32,15.80
2016,07,20,06,33,15.80
2016,07,20,06,34,15.70
2016,07,20,06,35,15.70
2016,07,20,06,36,15.70
2016,07,20,06,37,15.70
2016,07,20,06,38,15.70
2016,07,20,06,39,15.70
2016,07,20,06,40,15.70
2016,07,20,06,41,15.70
2016,07,20,06,42,15.70
2016,07,20,06,43,15.70
2016,07,20,06,44,15.70
2016,07,20,06,45,15.70
2016,07,20,06,46,15.70
2016,07,20,06,47,15.70
2016,07,20,06,48,15.70
2016,07,20,06,49,15.70
2016,07,20,06,50,15.70
2016,07,20,06,51,15.70
2016,07,20,06,52,15.80
2016,07,20,06,53,15.80
2016,07,20,06,54,15.80
2016,07,20,06,55,15.80
2016,07,20,06,56,15.80
2016,07,20,06,57,15.80
2016,07,20,06,58,15.90
2016,07,20,06,59,15.90
2016,07,20,07,00,15.90
2016,07,20,07,01,16.00
2016,07,20,07,02,16.00
2016,07,20,07,03,16.10
2016,07,20,07,04,16.10
2016,07,20,07,05,16.20
2016,07,20,07,06,16.20
2016,07,20,07,07,16.20
2016,07,20,07,08,16.20
2016,07,20,07,09,16.20
2016,07,20,07,10,16.20
2016,07,20,07,11,16.30
2016,07,20,07,12,16.20
2016,07,20,07,13,16.20
2016,07,20,07,14,16.20
2016,07,20,07,15,16.20
2016,07,20,07,16,16.20
2016,07,20,07,17,16.20
2016,07,20,07,18,16.20
2016,07,20,07,19,16.20
2016,07,20,07,20,16.20
2016,07,20,07,21,16.20
2016,07,20,07,22,16.20
2016,07,20,07,23,16.20
2016,07,20,07,24,16.20
2016,07,20,07,25,16.30
2016,07,20,07,26,16.30
2016,07,20,07,27,16.30
2016,07,20,07,28,16.30
2016,07,20,07,29,16.30
2016,07,20,07,30,16.40
2016,07,20,07,31,16.40
2016,07,20,07,32,16.50
2016,07,20,07,33,16.50
2016,07,20,07,34,16.50
2016,07,20,07,35,16.60
2016,07,20,07,36,16.60
2016,07,20,07,37,16.70
2016,07,20,07,38,16.70
2016,07,20,07,39,16.70
2016,07,20,07,40,16.70
2016,07,20,07,41,16.60
2016,07,20,07,42,16.60
2016,07,20,07,43,16.50
2016,07,20,07,44,16.50
2016,07,20,07,45,16.50
2016,07,20,07,46,16.40
2016,07,20,07,47,16.40
2016,07,20,07,48,16.40
2016,07,20,07,49,16.40
2016,07,20,07,50,16.40
2016,07,20,07,51,16.40
2016,07,20,07,52,16.50
2016,07,20,07,53,16.50
2016,07,20,07,54,16.50
2016,07,20,07,55,16.50
2016,07,20,07,56,16.60
2016,07,20,07,57,16.60
2016,07,20,07,58,16.60
2016,07,20,07,59,16.70
2016,07,20,08,00,16.70
2016,07,20,08,01,16.80
2016,07,20,08,02,16.80
2016,07,20,08,03,16.80
2016,07,20,08,04,16.80
2016,07,20,08,05,16.80
2016,07,20,08,06,16.80
2016,07,20,08,07,16.90
2016,07,20,08,08,16.90
2016,07,20,08,09,16.90
2016,07,20,08,10,16.90
2016,07,20,08,11,16.90
2016,07,20,08,12,16.90
2016,07,20,08,13,17.00
2016,07,20,08,14,17.00
2016,07,20,08,15,17.00
2016,07,20,08,16,17.00
2016,07,20,08,17,16.90
2016,07,20,08,18,16.90
2016,07,20,08,19,16.80
2016,07,20,08,20,16.80
2016,07,20,08,21,16.80
2016,07,20,08,22,16.80
2016,07,20,08,23,16.80
2016,07,20,08,24,16.80
2016,07,20,08,25,16.80
2016,07,20,08,26,16.80
2016,07,20,08,27,16.80
2016,07,20,08,28,16.80
2016,07,20,08,29,16.80
2016,07,20,08,30,16.80
2016,07,20,08,31,16.80
2016,07,20,08,32,16.90
2016,07,20,08,33,16.90
2016,07,20,08,34,17.00
2016,07,20,08,35,17.00
2016,07,20,08,36,17.10
2016,07,20,08,37,17.20
2016,07,20,08,38,17.20
2016,07,20,08,39,17.20
2016,07,20,08,40,17.30
2016,07,20,08,41,17.30
2016,07,20,08,42,17.40
2016,07,20,08,43,17.40
2016,07,20,08,44,17.50
2016,07,20,08,45,17.50
2016,07,20,08,46,17.50
2016,07,20,08,47,17.60
2016,07,20,08,48,17.50
2016,07,20,08,49,17.50
2016,07,20,08,50,17.60
2016,07,20,08,51,17.60
2016,07,20,08,52,17.60
2016,07,20,08,53,17.50
2016,07,20,08,54,17.40
2016,07,20,08,55,17.40
2016,07,20,08,56,17.50
2016,07,20,08,57,17.50
2016,07,20,08,58,17.50
2016,07,20,08,59,17.50
2016,07,20,09,00,17.50
2016,07,20,09,01,17.60
2016,07,20,09,02,17.70
2016,07,20,09,03,17.70
2016,07,20,09,04,17.80
2016,07,20,09,05,17.80
2016,07,20,09,06,17.90
2016,07,20,09,07,17.90
2016,07,20,09,08,17.90
2016,07,20,09,09,18.00
2016,07,20,09,10,18.00
2016,07,20,09,11,18.10
2016,07,20,09,12,18.00
2016,07,20,09,13,18.00
2016,07,20,09,14,18.00
2016,07,20,09,15,18.00
2016,07,20,09,16,18.10
2016,07,20,09,17,18.10
2016,07,20,09,18,18.20
2016,07,20,09,19,18.20
2016,07,20,09,20,18.30
2016,07,20,09,21,18.40
2016,07,20,09,22,18.40
2016,07,20,09,23,18.50
2016,07,20,09,24,18.60
2016,07,20,09,25,18.70
2016,07,20,09,26,18.80
2016,07,20,09,27,18.80
2016,07,20,09,28,18.90
2016,07,20,09,29,19.00
2016,07,20,09,30,19.00
2016,07,20,09,31,19.10
2016,07,20,09,32,19.20
2016,07,20,09,33,19.20
2016,07,20,09,34,19.20
2016,07,20,09,35,19.20
2016,07,20,09,36,19.30
2016,07,20,09,37,19.20
2016,07,20,09,38,19.20
2016,07,20,09,39,19.20
2016,07,20,09,40,19.10
2016,07,20,09,41,19.00
2016,07,20,09,42,19.00
2016,07,20,09,43,18.90
2016,07,20,09,44,18.90
2016,07,20,09,45,18.90
2016,07,20,09,46,18.90
2016,07,20,09,47,18.80
2016,07,20,09,48,18.80
2016,07,20,09,49,18.80
2016,07,20,09,50,18.80
2016,07,20,09,51,18.80
2016,07,20,09,52,18.80
2016,07,20,09,53,18.80
2016,07,20,09,54,18.80
2016,07,20,09,55,18.80
2016,07,20,09,56,18.80
2016,07,20,09,57,18.80
2016,07,20,09,58,18.80
2016,07,20,09,59,18.80
2016,07,20,10,00,18.80
2016,07,20,10,01,18.80
2016,07,20,10,02,18.80
2016,07,20,10,03,18.80
2016,07,20,10,04,18.80
2016,07,20,10,05,18.80
2016,07,20,10,06,18.80
2016,07,20,10,07,18.80
2016,07,20,10,08,18.80
2016,07,20,10,09,18.80
2016,07,20,10,10,18.80
2016,07,20,10,11,18.80
2016,07,20,10,12,18.90
2016,07,20,10,13,18.90
2016,07,20,10,14,18.90
2016,07,20,10,15,19.00
2016,07,20,10,16,19.10
2016,07,20,10,17,19.10
2016,07,20,10,18,19.10
2016,07,20,10,19,19.10
2016,07,20,10,20,19.10
2016,07,20,10,21,19.10
2016,07,20,10,22,19.10
2016,07,20,10,23,19.10
2016,07,20,10,24,19.20
2016,07,20,10,25,19.20
2016,07,20,10,26,19.20
2016,07,20,10,27,19.10
2016,07,20,10,28,19.00
2016,07,20,10,29,18.90
2016,07,20,10,30,18.90
2016,07,20,10,31,18.90
2016,07,20,10,32,18.90
2016,07,20,10,33,18.90
2016,07,20,10,34,18.90
2016,07,20,10,35,18.90
2016,07,20,10,36,18.90
2016,07,20,10,37,18.90
2016,07,20,10,38,18.80
2016,07,20,10,39,18.80
2016,07,20,10,40,18.70
2016,07,20,10,41,18.70
2016,07,20,10,42,18.60
2016,07,20,10,43,18.60
2016,07,20,10,44,18.60
2016,07,20,10,45,18.50
2016,07,20,10,46,18.50
2016,07,20,10,47,18.40
2016,07,20,10,48,18.30
2016,07,20,10,49,18.30
2016,07,20,10,50,18.30
2016,07,20,10,51,18.30
2016,07,20,10,52,18.30
2016,07,20,10,53,18.30
2016,07,20,10,54,18.40
2016,07,20,10,55,18.50
2016,07,20,10,56,18.60
2016,07,20,10,57,18.70
2016,07,20,10,58,18.80
2016,07,20,10,59,18.90
2016,07,20,11,00,19.10
2016,07,20,11,01,19.20
2016,07,20,11,02,19.30
2016,07,20,11,03,19.30
2016,07,20,11,04,19.30
2016,07,20,11,05,19.30
2016,07,20,11,06,19.30
2016,07,20,11,07,19.30
2016,07,20,11,08,19.20
2016,07,20,11,09,19.20
2016,07,20,11,10,19.10
2016,07,20,11,11,19.00
2016,07,20,11,12,19.00
2016,07,20,11,13,18.90
2016,07,20,11,14,18.90
2016,07,20,11,15,18.80
2016,07,20,11,16,18.80
2016,07,20,11,17,18.80
2016,07,20,11,18,18.80
2016,07,20,11,19,18.70
2016,07,20,11,20,18.70
2016,07,20,11,21,18.70
2016,07,20,11,22,18.70
2016,07,20,11,23,18.80
2016,07,20,11,24,18.90
2016,07,20,11,25,19.00
2016,07,20,11,26,19.10
2016,07,20,11,27,19.20
2016,07,20,11,28,19.20
2016,07,20,11,29,19.30
2016,07,20,11,30,19.40
2016,07,20,11,31,19.40
2016,07,20,11,32,19.60
2016,07,20,11,33,19.60
2016,07,20,11,34,19.70
2016,07,20,11,35,19.70
2016,07,20,11,36,19.70
2016,07,20,11,37,19.80
2016,07,20,11,38,19.80
2016,07,20,11,39,19.80
2016,07,20,11,40,19.70
2016,07,20,11,41,19.70
2016,07,20,11,42,19.70
2016,07,20,11,43,19.70
2016,07,20,11,44,19.70
2016,07,20,11,45,19.70
2016,07,20,11,46,19.70
2016,07,20,11,47,19.70
2016,07,20,11,48,19.70
2016,07,20,11,49,19.60
2016,07,20,11,50,19.60
2016,07,20,11,51,19.50
2016,07,20,11,52,19.50
2016,07,20,11,53,19.50
2016,07,20,11,54,19.50
2016,07,20,11,55,19.50
2016,07,20,11,56,19.60
2016,07,20,11,57,19.70
2016,07,20,11,58,19.80
2016,07,20,11,59,19.80
2016,07,20,12,00,19.70
2016,07,20,12,01,19.60
2016,07,20,12,02,19.60
2016,07,20,12,03,19.60
2016,07,20,12,04,19.50
2016,07,20,12,05,19.50
2016,07,20,12,06,19.50
2016,07,20,12,07,19.50
2016,07,20,12,08,19.50
2016,07,20,12,09,19.60
2016,07,20,12,10,19.70
2016,07,20,12,11,19.70
2016,07,20,12,12,19.70
2016,07,20,12,13,19.70
2016,07,20,12,14,19.70
2016,07,20,12,15,19.80
2016,07,20,12,16,19.90
2016,07,20,12,17,19.90
2016,07,20,12,18,19.80
2016,07,20,12,19,19.80
2016,07,20,12,20,19.80
2016,07,20,12,21,19.70
2016,07,20,12,22,19.70
2016,07,20,12,23,19.70
2016,07,20,12,24,19.70
2016,07,20,12,25,19.60
2016,07,20,12,26,19.50
2016,07,20,12,27,19.50
2016,07,20,12,28,19.50
2016,07,20,12,29,19.50
2016,07,20,12,30,19.50
2016,07,20,12,31,19.50
2016,07,20,12,32,19.40
2016,07,20,12,33,19.50
2016,07,20,12,34,19.60
2016,07,20,12,35,19.70
2016,07,20,12,36,19.70
2016,07,20,12,37,19.90
2016,07,20,12,38,20.00
2016,07,20,12,39,20.10
2016,07,20,12,40,20.20
2016,07,20,12,41,20.20
2016,07,20,12,42,20.20
2016,07,20,12,43,20.00
2016,07,20,12,44,19.90
2016,07,20,12,45,19.80
2016,07,20,12,46,19.80
2016,07,20,12,47,19.80
2016,07,20,12,48,19.90
2016,07,20,12,49,19.90
2016,07,20,12,50,19.90
2016,07,20,12,51,19.90
2016,07,20,12,52,20.00
2016,07,20,12,53,20.00
2016,07,20,12,54,20.00
2016,07,20,12,55,20.00
2016,07,20,12,56,20.10
2016,07,20,12,57,20.20
2016,07,20,12,58,20.20
2016,07,20,12,59,20.30
2016,07,20,13,00,20.30
2016,07,20,13,01,20.30
2016,07,20,13,02,20.20
2016,07,20,13,03,20.10
2016,07,20,13,04,20.10
2016,07,20,13,05,20.10
2016,07,20,13,06,20.10
2016,07,20,13,07,20.10
2016,07,20,13,08,20.10
2016,07,20,13,09,20.10
2016,07,20,13,10,20.10
2016,07,20,13,11,20.00
2016,07,20,13,12,20.00
2016,07,20,13,13,20.00
2016,07,20,13,14,20.00
2016,07,20,13,15,19.90
2016,07,20,13,16,19.90
2016,07,20,13,17,19.90
2016,07,20,13,18,19.80
2016,07,20,13,19,19.70
2016,07,20,13,20,19.70
2016,07,20,13,21,19.70
2016,07,20,13,22,19.60
2016,07,20,13,23,19.60
2016,07,20,13,24,19.60
2016,07,20,13,25,19.70
2016,07,20,13,26,19.70
2016,07,20,13,27,19.70
2016,07,20,13,28,19.70
2016,07,20,13,29,19.70
2016,07,20,13,30,19.60
2016,07,20,13,31,19.70
2016,07,20,13,32,19.80
2016,07,20,13,33,19.90
2016,07,20,13,34,20.00
2016,07,20,13,35,20.00
2016,07,20,13,36,20.00
2016,07,20,13,37,19.90
2016,07,20,13,38,19.90
2016,07,20,13,39,19.90
2016,07,20,13,40,19.90
2016,07,20,13,41,20.00
2016,07,20,13,42,20.10
2016,07,20,13,43,20.10
2016,07,20,13,44,20.10
2016,07,20,13,45,20.00
2016,07,20,13,46,19.90
2016,07,20,13,47,19.70
2016,07,20,13,48,19.60
2016,07,20,13,49,19.60
2016,07,20,13,50,19.50
2016,07,20,13,51,19.40
2016,07,20,13,52,19.30
2016,07,20,13,53,19.30
2016,07,20,13,54,19.20
2016,07,20,13,55,19.10
2016,07,20,13,56,19.00
2016,07,20,13,57,18.80
2016,07,20,13,58,18.70
2016,07,20,13,59,18.70
2016,07,20,14,00,18.80
2016,07,20,14,01,18.80
2016,07,20,14,02,18.80
2016,07,20,14,03,18.90
2016,07,20,14,04,18.90
2016,07,20,14,05,19.00
2016,07,20,14,06,19.10
2016,07,20,14,07,19.20
2016,07,20,14,08,19.30
2016,07,20,14,09,19.40
2016,07,20,14,10,19.50
2016,07,20,14,11,19.50
2016,07,20,14,12,19.60
2016,07,20,14,13,19.70
2016,07,20,14,14,19.70
2016,07,20,14,15,19.80
2016,07,20,14,16,19.80
2016,07,20,14,17,19.80
2016,07,20,14,18,19.90
2016,07,20,14,19,19.90
2016,07,20,14,20,19.90
2016,07,20,14,21,19.80
2016,07,20,14,22,19.90
2016,07,20,14,23,20.00
2016,07,20,14,24,20.10
2016,07,20,14,25,20.20
2016,07,20,14,26,20.30
2016,07,20,14,27,20.30
2016,07,20,14,28,20.30
2016,07,20,14,29,20.20
2016,07,20,14,30,20.20
2016,07,20,14,31,20.20
2016,07,20,14,32,20.20
2016,07,20,14,33,20.30
2016,07,20,14,34,20.30
2016,07,20,14,35,20.20
2016,07,20,14,36,20.20
2016,07,20,14,37,20.20
2016,07,20,14,38,20.20
2016,07,20,14,39,20.20
2016,07,20,14,40,20.10
2016,07,20,14,41,20.10
2016,07,20,14,42,20.10
2016,07,20,14,43,20.10
2016,07,20,14,44,20.10
2016,07,20,14,45,20.10
2016,07,20,14,46,20.20
2016,07,20,14,47,20.30
2016,07,20,14,48,20.30
2016,07,20,14,49,20.30
2016,07,20,14,50,20.30
2016,07,20,14,51,20.30
2016,07,20,14,52,20.20
2016,07,20,14,53,20.20
2016,07,20,14,54,20.20
2016,07,20,14,55,20.20
2016,07,20,14,56,20.20
2016,07,20,14,57,20.30
2016,07,20,14,58,20.20
2016,07,20,14,59,20.20
2016,07,20,15,00,20.10
2016,07,20,15,01,20.00
2016,07,20,15,02,19.90
2016,07,20,15,03,19.80
2016,07,20,15,04,19.80
2016,07,20,15,05,19.90
2016,07,20,15,06,19.90
2016,07,20,15,07,19.90
2016,07,20,15,08,19.90
2016,07,20,15,09,19.90
2016,07,20,15,10,19.90
2016,07,20,15,11,19.90
2016,07,20,15,12,19.90
2016,07,20,15,13,19.80
2016,07,20,15,14,19.80
2016,07,20,15,15,19.80
2016,07,20,15,16,19.70
2016,07,20,15,17,19.70
2016,07,20,15,18,19.70
2016,07,20,15,19,19.80
2016,07,20,15,20,19.80
2016,07,20,15,21,19.80
2016,07,20,15,22,19.80
2016,07,20,15,23,19.80
2016,07,20,15,24,19.80
2016,07,20,15,25,19.80
2016,07,20,15,26,19.80
2016,07,20,15,27,19.80
2016,07,20,15,28,19.90
2016,07,20,15,29,19.90
2016,07,20,15,30,20.00
2016,07,20,15,31,20.10
2016,07,20,15,32,20.10
2016,07,20,15,33,20.20
2016,07,20,15,34,20.20
2016,07,20,15,35,20.30
2016,07,20,15,36,20.30
2016,07,20,15,37,20.40
2016,07,20,15,38,20.40
2016,07,20,15,39,20.40
2016,07,20,15,40,20.50
2016,07,20,15,41,20.50
2016,07,20,15,42,20.60
2016,07,20,15,43,20.60
2016,07,20,15,44,20.60
2016,07,20,15,45,20.60
2016,07,20,15,46,20.70
2016,07,20,15,47,20.70
2016,07,20,15,48,20.80
2016,07,20,15,49,20.80
2016,07,20,15,50,20.80
2016,07,20,15,51,20.90
2016,07,20,15,52,20.90
2016,07,20,15,53,21.00
2016,07,20,15,54,21.10
2016,07,20,15,55,21.20
2016,07,20,15,56,21.30
2016,07,20,15,57,21.40
2016,07,20,15,58,21.40
2016,07,20,15,59,21.50
2016,07,20,16,00,21.50
2016,07,20,16,01,21.50
2016,07,20,16,02,21.60
2016,07,20,16,03,21.70
2016,07,20,16,04,21.90
2016,07,20,16,05,22.10
2016,07,20,16,06,22.30
2016,07,20,16,07,22.30
2016,07,20,16,08,22.40
2016,07,20,16,09,22.50
2016,07,20,16,10,22.60
2016,07,20,16,11,22.70
2016,07,20,16,12,22.80
2016,07,20,16,13,22.80
2016,07,20,16,14,22.70
2016,07,20,16,15,22.70
2016,07,20,16,16,22.60
2016,07,20,16,17,22.60
2016,07,20,16,18,22.60
2016,07,20,16,19,22.70
2016,07,20,16,20,22.90
2016,07,20,16,21,23.00
2016,07,20,16,22,23.00
2016,07,20,16,23,22.90
2016,07,20,16,24,22.90
2016,07,20,16,25,23.00
2016,07,20,16,26,23.10
2016,07,20,16,27,23.20
2016,07,20,16,28,23.40
2016,07,20,16,29,23.40
2016,07,20,16,30,23.40
2016,07,20,16,31,23.30
2016,07,20,16,32,23.20
2016,07,20,16,33,23.10
2016,07,20,16,34,23.00
2016,07,20,16,35,22.90
2016,07,20,16,36,22.70
2016,07,20,16,37,22.60
2016,07,20,16,38,22.60
2016,07,20,16,39,22.50
2016,07,20,16,40,22.50
2016,07,20,16,41,22.50
2016,07,20,16,42,22.60
2016,07,20,16,43,22.70
2016,07,20,16,44,22.70
2016,07,20,16,45,22.60
2016,07,20,16,46,22.60
2016,07,20,16,47,22.60
2016,07,20,16,48,22.60
2016,07,20,16,49,22.60
2016,07,20,16,50,22.60
2016,07,20,16,51,22.70
2016,07,20,16,52,22.80
2016,07,20,16,53,22.90
2016,07,20,16,54,22.90
2016,07,20,16,55,23.00
2016,07,20,16,56,23.00
2016,07,20,16,57,23.00
2016,07,20,16,58,23.10
2016,07,20,16,59,23.00
2016,07,20,17,00,22.90
2016,07,20,17,01,22.70
2016,07,20,17,02,22.60
2016,07,20,17,03,22.60
2016,07,20,17,04,22.60
2016,07,20,17,05,22.60
2016,07,20,17,06,22.50
2016,07,20,17,07,22.60
2016,07,20,17,08,22.60
2016,07,20,17,09,22.60
2016,07,20,17,10,22.70
2016,07,20,17,11,22.80
2016,07,20,17,12,22.80
2016,07,20,17,13,22.90
2016,07,20,17,14,22.80
2016,07,20,17,15,22.80
2016,07,20,17,16,22.80
2016,07,20,17,17,22.80
2016,07,20,17,18,22.80
2016,07,20,17,19,22.80